[[{"header":{"parameterUnit":"m.s-1","parameterCategory":1,"la1":30.2991,"la2":30.254,"lo1":-89.0895,"lo2":-89.0444,"dy":0.0017,"dx":0.0017,"nx":28,"ny":28,"refTime":"2024-04-24T09:00:00:Z","depth":0,"parameterNumber":2,"parameterNumberName":"U-component_of_WINDS"},"data":[0,0,0,0,0,0,0,0,0,0,0,0,0,0,0,0,0,0,0,0,0,0,0,0,0,0,0,0,0,0,0,0,0,0,0,0,0,0,0,0,0,0,0,0,0,0,0,0,0,0,0,0,0,0,0,0,0,0,-1.125,-1.1249,0,-1.1133,-1.1132,-1.113,-1.1048,-1.1047,-1.1047,-1.1046,-1.0924,-1.0922,-1.0919,0,0,0,0,0,0,0,0,0,0,0,0,0,-1.1403,-1.14,-1.125,-1.1249,-1.1247,-1.1133,-1.1132,-1.113,-1.1048,-1.1047,-1.1047,-1.1046,-1.0925,-1.0922,-1.0919,0,0,0,0,0,0,0,0,0,0,0,0,0,-1.1316,-1.1399,-1.1251,-1.1193,-1.1186,-1.1133,-1.1131,-1.1129,-1.1048,-1.1047,-1.1046,-1.1046,-1.0926,-1.0922,-1.0918,-1.0913,0,0,-1.0906,-1.0905,0,0,0,0,0,0,0,0,-1.1321,-1.1311,-1.1203,-1.1197,-1.1189,-1.1104,-1.114,-1.1057,-1.1049,-1.1101,-1.1046,-1.1045,-1.0985,-1.0976,-1.0956,-1.0907,-1.0902,-1.0906,-1.0904,-1.0902,-1.0901,0,0,0,0,0,0,0,-1.1327,-1.1315,-1.1204,-1.1201,-1.1193,-1.1173,-1.1159,-1.1124,-1.1049,-1.1096,-1.109,-1.1077,-1.0981,-1.096,-1.0953,-1.09,-1.0906,-1.0903,-1.09,-1.0899,-1.0842,-1.0843,0,0,0,0,0,0,-1.1342,-1.1321,-1.1207,-1.12,-1.1254,-1.1171,-1.1156,-1.1133,-1.105,-1.1036,-1.1078,-1.1074,-1.0967,-1.0957,-1.0948,-1.0936,-1.0902,-1.0898,-1.0896,-1.0841,-1.0842,-1.0843,0,0,0,0,0,0,-1.1346,-1.1333,-1.1212,-1.1259,-1.1242,-1.1169,-1.1144,-1.1131,-1.111,-1.1036,-1.1022,-1.1071,-1.0966,-1.0954,-1.0923,-1.0931,-1.0896,-1.0893,-1.084,-1.0841,-1.0843,-1.0914,0,0,0,0,0,0,-1.1351,-1.1335,-1.1332,-1.1259,-1.124,-1.1189,-1.1144,-1.1129,-1.1103,-1.1096,-1.1025,-1.1013,-1.0964,-1.0929,-1.0919,-1.0925,-1.089,-1.0839,-1.0841,-1.0842,-1.091,-1.0917,-1.0923,0,0,0,0,0,-1.1356,-1.1356,-1.1332,-1.1319,-1.1235,-1.119,-1.1179,-1.1124,-1.1104,-1.1101,-1.1054,-1.1015,-1.0932,-1.0927,-1.0914,-1.092,-1.0838,-1.084,-1.0842,-1.0907,-1.0916,-1.0923,0,0,0,0,0,0,-1.1431,-1.1346,-1.1318,-1.1295,-1.125,-1.1176,-1.117,-1.1135,-1.1094,-1.109,-1.1023,-1.1007,-1.0984,-1.0948,-1.0944,-1.091,-1.088,-1.088,-1.0934,-1.0942,-1.0948,-1.0957,-1.0886,0,0,0,0,0,-1.1445,-1.1416,-1.1343,-1.1329,-1.1308,-1.1244,-1.1222,-1.1184,-1.1135,-1.1115,-1.1066,-1.102,-1.0983,-1.096,-1.0923,-1.0905,-1.0888,-1.0902,-1.0909,-1.0915,-1.0915,-1.0904,-1.0909,-1.085,-1.085,-1.0849,0,0,-1.1473,-1.1423,-1.1409,-1.1343,-1.1304,-1.1276,-1.1228,-1.12,-1.1178,-1.1111,-1.1079,-1.1041,-1.0985,-1.0961,-1.0948,-1.0931,-1.0928,-1.0917,-1.0923,-1.0919,-1.0906,-1.0912,-1.0917,-1.0851,-1.0851,-1.085,0,0,-1.151,-1.1469,-1.1454,-1.1416,-1.1358,-1.1315,-1.1312,-1.1243,-1.1216,-1.1183,-1.1132,-1.1105,-1.1043,-1.1006,-1.0978,-1.1003,-1.0965,-1.0992,-1.1026,-1.1016,-1.102,-1.1024,-1.1033,-1.1037,-1.0993,-1.0993,-1.0993,0,-1.1552,-1.1508,-1.145,-1.1425,-1.1398,-1.1337,-1.132,-1.1286,-1.1219,-1.1202,-1.1184,-1.1106,-1.1064,-1.103,-1.1037,-1.1016,-1.101,-1.1,-1.1025,-1.1028,-1.1031,-1.1038,-1.1042,-1.0997,-1.0996,-1.0996,-1.0995,0,-1.1563,-1.1533,-1.1527,-1.1464,-1.1436,-1.1416,-1.1355,-1.1334,-1.1298,-1.1257,-1.1225,-1.1172,-1.1123,-1.1113,-1.1077,-1.1074,-1.1066,-1.1037,-1.1006,-1.1041,-1.1047,-1.105,-1.1002,-1.1001,-1.0999,-1.0999,0,0,-1.1643,-1.1549,-1.1548,-1.1519,-1.1452,-1.1427,-1.1404,-1.1357,-1.134,-1.1296,-1.1275,-1.1225,-1.1199,-1.1168,-1.1128,-1.1119,-1.1142,-1.1091,-1.1089,-1.1103,-1.1136,-1.1158,-1.1163,-1.1117,-1.1117,-1.1118,-1.1141,0,-1.1669,-1.1625,-1.1573,-1.1547,-1.1518,-1.146,-1.144,-1.1397,-1.1358,-1.1328,-1.1285,-1.1251,-1.1218,-1.1199,-1.1188,-1.1142,-1.1148,-1.1139,-1.1097,-1.1096,-1.1113,-1.1166,-1.1189,-1.1213,-1.1143,-1.1143,-1.1143,0,-1.1694,-1.1654,-1.1625,-1.1561,-1.1547,-1.153,-1.1483,-1.1455,-1.1404,-1.1377,-1.1344,-1.1301,-1.1274,-1.1246,-1.1208,-1.1203,-1.1183,-1.1158,-1.1157,-1.1151,-1.1122,-1.1161,-1.122,-1.1224,-1.1147,-1.1146,-1.1146,0,-1.1757,-1.1695,-1.167,-1.1647,-1.1571,-1.156,-1.1528,-1.1476,-1.1452,-1.1411,-1.1394,-1.135,-1.1326,-1.1293,-1.124,-1.1225,-1.1208,-1.1175,-1.1184,-1.1185,-1.1183,-1.1184,-1.1239,-1.117,-1.117,-1.1169,-1.1169,0,-1.1792,-1.1777,-1.1697,-1.1682,-1.1663,-1.1603,-1.1586,-1.1548,-1.1503,-1.148,-1.1427,-1.1405,-1.1336,-1.1307,-1.1265,-1.124,-1.1229,-1.1206,-1.1196,-1.1211,-1.1214,-1.1197,-1.1194,-1.117,-1.117,-1.117,-1.117,0,-1.1858,-1.1804,-1.1773,-1.1704,-1.1686,-1.1675,-1.1616,-1.1599,-1.1558,-1.1528,-1.1518,-1.1453,-1.1416,-1.1359,-1.1305,-1.1277,-1.1259,-1.1241,-1.1276,-1.127,-1.1282,-1.1282,-1.1328,-1.1331,-1.126,-1.1261,-1.1262,0,-1.1884,-1.1871,-1.1801,-1.1782,-1.1751,-1.1721,-1.1696,-1.1636,-1.1612,-1.1554,-1.1544,-1.1503,-1.1467,-1.1411,-1.1358,-1.1317,-1.1297,-1.1316,-1.129,-1.1307,-1.1298,-1.13,-1.1298,-1.1322,-1.1324,-1.1324,-1.1325,0,-1.1937,-1.1911,-1.1877,-1.1834,-1.1805,-1.1768,-1.1729,-1.1716,-1.1648,-1.1624,-1.1585,-1.1558,-1.1503,-1.1463,-1.1414,-1.138,-1.1342,-1.1334,-1.1334,-1.135,-1.1371,-1.136,-1.1293,-1.1333,-1.1332,-1.1332,-1.1331,-1.1331,-1.1984,-1.197,-1.1919,-1.1883,-1.1847,-1.1811,-1.1792,-1.1749,-1.1716,-1.1667,-1.1634,-1.1598,-1.1548,-1.1479,-1.1447,-1.1418,-1.1401,-1.1401,-1.1401,-1.1402,-1.1408,-1.1376,-1.1409,-1.1409,-1.1408,-1.1408,-1.1408,0,-1.2034,-1.1999,-1.1966,-1.1913,-1.1885,-1.1851,-1.1806,-1.1784,-1.1754,-1.171,-1.1676,-1.1633,-1.1594,-1.1539,-1.1496,-1.1483,-1.1465,-1.1474,-1.1474,-1.1467,-1.1425,-1.143,-1.149,-1.149,-1.149,-1.149,-1.149,-1.149,-1.2057,-1.2032,-1.2,-1.1957,-1.1921,-1.1886,-1.1863,-1.183,-1.1795,-1.1749,-1.1717,-1.1682,-1.1634,-1.1587,-1.155,-1.1535,-1.1522,-1.1537,-1.1516,-1.1478,-1.147,-1.1463,-1.1467,-1.1534,-1.1535,-1.1561,-1.1561,-1.1562]},{"header":{"parameterUnit":"m.s-1","parameterCategory":1,"la1":30.2991,"la2":30.254,"lo1":-89.0895,"lo2":-89.0444,"dy":0.0017,"dx":0.0017,"nx":28,"ny":28,"refTime":"2024-04-24T09:00:00:Z","depth":0,"parameterNumber":3,"parameterNumberName":"V-component_of_WINDS"},"data":[0,0,0,0,0,0,0,0,0,0,0,0,0,0,0,0,0,0,0,0,0,0,0,0,0,0,0,0,0,0,0,0,0,0,0,0,0,0,0,0,0,0,0,0,0,0,0,0,0,0,0,0,0,0,0,0,0,0,3.4103,3.4103,0,3.409,3.409,3.4089,3.4068,3.4068,3.4067,3.4067,3.4052,3.4052,3.4052,0,0,0,0,0,0,0,0,0,0,0,0,0,3.411,3.411,3.4103,3.4103,3.4103,3.409,3.409,3.4089,3.4068,3.4068,3.4067,3.4067,3.4052,3.4052,3.4052,0,0,0,0,0,0,0,0,0,0,0,0,0,3.4103,3.411,3.4103,3.4091,3.4089,3.409,3.409,3.4089,3.4068,3.4068,3.4067,3.4067,3.4052,3.4052,3.4052,3.4062,0,0,3.4051,3.4051,0,0,0,0,0,0,0,0,3.4103,3.4102,3.4093,3.4092,3.409,3.408,3.4086,3.408,3.4069,3.4076,3.4067,3.4066,3.4062,3.4061,3.4059,3.4062,3.4061,3.4051,3.4051,3.4051,3.4051,0,0,0,0,0,0,0,3.4103,3.4103,3.4098,3.4093,3.4091,3.4086,3.4084,3.4085,3.4072,3.4076,3.4074,3.4073,3.4061,3.4059,3.4059,3.4061,3.4051,3.4051,3.4051,3.4051,3.4072,3.4073,0,0,0,0,0,0,3.4106,3.4103,3.4098,3.4097,3.4095,3.4086,3.4084,3.4084,3.4072,3.407,3.4073,3.4072,3.406,3.4059,3.4058,3.4071,3.4051,3.4051,3.4051,3.4072,3.4073,3.4073,0,0,0,0,0,0,3.4106,3.4106,3.4099,3.41,3.4099,3.4086,3.4086,3.4084,3.4083,3.407,3.4068,3.4074,3.4059,3.4058,3.4062,3.407,3.4051,3.4051,3.4071,3.4072,3.4073,3.4095,0,0,0,0,0,0,3.4106,3.4106,3.411,3.41,3.4099,3.4103,3.4087,3.4084,3.4083,3.4081,3.4071,3.4069,3.4059,3.4062,3.4062,3.4069,3.4051,3.407,3.4072,3.4073,3.4094,3.4097,3.41,0,0,0,0,0,3.4107,3.4116,3.411,3.411,3.4104,3.4103,3.4102,3.4091,3.4083,3.4087,3.408,3.4069,3.4069,3.4063,3.4062,3.407,3.407,3.4071,3.4073,3.4093,3.4096,3.41,0,0,0,0,0,0,3.4127,3.4115,3.4108,3.4115,3.411,3.41,3.4104,3.4096,3.4093,3.4091,3.4077,3.4075,3.4081,3.4075,3.4069,3.408,3.4068,3.4069,3.4083,3.4087,3.409,3.4091,3.4051,0,0,0,0,0,3.4132,3.4133,3.4123,3.4129,3.4128,3.4117,3.4116,3.4108,3.4103,3.4101,3.4093,3.4088,3.4087,3.4087,3.4085,3.4093,3.4091,3.4098,3.4101,3.4104,3.4105,3.411,3.4113,3.4078,3.4078,3.4078,0,0,3.4142,3.4136,3.4138,3.4133,3.4129,3.4131,3.4115,3.4117,3.4118,3.4101,3.4104,3.4099,3.4092,3.4098,3.4101,3.4094,3.4114,3.4105,3.4107,3.4107,3.4111,3.4115,3.4118,3.4079,3.4079,3.4078,0,0,3.4163,3.4158,3.4164,3.416,3.4154,3.4147,3.4148,3.4139,3.4135,3.4138,3.4126,3.4127,3.4125,3.4121,3.4119,3.4139,3.4129,3.4139,3.4154,3.4158,3.4161,3.4164,3.4171,3.4174,3.414,3.414,3.414,0,3.4177,3.4179,3.4168,3.4171,3.4169,3.4155,3.4161,3.4157,3.4151,3.415,3.4143,3.4142,3.4136,3.4141,3.4147,3.4145,3.4146,3.414,3.4162,3.4164,3.4166,3.4173,3.4176,3.4141,3.4141,3.4141,3.4141,0,3.4196,3.4198,3.4203,3.4198,3.4197,3.4202,3.4191,3.4192,3.4184,3.4178,3.4182,3.4175,3.4172,3.4173,3.4165,3.4177,3.4174,3.4164,3.4152,3.4171,3.4177,3.418,3.4143,3.4143,3.4142,3.4142,0,0,3.4228,3.4218,3.422,3.4218,3.4211,3.4212,3.4216,3.4213,3.4214,3.4211,3.4214,3.4213,3.4205,3.4203,3.4194,3.4199,3.4216,3.4189,3.4189,3.4195,3.423,3.4237,3.424,3.4209,3.421,3.421,3.4231,0,3.4247,3.4253,3.4244,3.4253,3.4254,3.4241,3.4244,3.424,3.4235,3.4235,3.4229,3.4229,3.4218,3.4216,3.422,3.4213,3.4223,3.4211,3.4212,3.4212,3.4214,3.4244,3.4251,3.427,3.4233,3.4233,3.4234,0,3.4269,3.4268,3.4277,3.427,3.4271,3.4274,3.4272,3.4272,3.4268,3.4263,3.4261,3.4252,3.4255,3.4243,3.4248,3.4241,3.424,3.4237,3.4238,3.4237,3.4224,3.4244,3.4276,3.428,3.4237,3.4237,3.4237,0,3.4292,3.4292,3.4298,3.4297,3.4289,3.4292,3.4288,3.4283,3.4283,3.4281,3.428,3.4279,3.4278,3.4277,3.4267,3.4259,3.4273,3.426,3.427,3.427,3.4273,3.4273,3.4306,3.4273,3.4273,3.4273,3.4272,0,3.4314,3.4321,3.4308,3.4312,3.4318,3.4308,3.4315,3.431,3.4306,3.4308,3.4296,3.4299,3.4286,3.4287,3.4279,3.4285,3.4284,3.4281,3.4279,3.4282,3.4283,3.4282,3.428,3.4273,3.4273,3.4273,3.4273,0,3.4341,3.4333,3.4338,3.4331,3.4329,3.4334,3.4328,3.4331,3.4325,3.4328,3.4328,3.4318,3.4319,3.431,3.4308,3.4303,3.4312,3.4308,3.4314,3.4313,3.4323,3.4322,3.4356,3.4361,3.4325,3.4325,3.4325,0,3.4356,3.436,3.4354,3.4355,3.4352,3.4354,3.4354,3.4344,3.4344,3.434,3.4344,3.4344,3.4343,3.4345,3.4337,3.4337,3.4332,3.4344,3.4332,3.4335,3.4333,3.4333,3.4334,3.4347,3.4347,3.4348,3.4348,0,3.4383,3.4379,3.438,3.4379,3.438,3.4379,3.4377,3.4378,3.4367,3.4368,3.4369,3.4369,3.4368,3.4369,3.4367,3.4363,3.4354,3.4352,3.4354,3.4358,3.4361,3.436,3.4321,3.4351,3.4351,3.4351,3.435,3.435,3.4404,3.4408,3.4404,3.4406,3.4403,3.4402,3.4405,3.44,3.4401,3.44,3.4394,3.4396,3.4392,3.4388,3.4386,3.4388,3.4382,3.4385,3.4385,3.4387,3.4389,3.4361,3.4387,3.4387,3.4387,3.4387,3.4387,0,3.4431,3.4429,3.443,3.4428,3.4429,3.4421,3.4419,3.4421,3.4423,3.442,3.442,3.4422,3.4423,3.4416,3.4416,3.4418,3.4414,3.4419,3.4418,3.4418,3.4394,3.4392,3.4422,3.4422,3.4422,3.4422,3.4422,3.4422,3.4446,3.4452,3.4448,3.4453,3.445,3.4453,3.4453,3.4451,3.4449,3.4452,3.4453,3.4449,3.4444,3.4444,3.4444,3.4442,3.4443,3.4449,3.4445,3.4423,3.4419,3.4416,3.4415,3.4449,3.4449,3.4469,3.4469,3.447]}]]